Probability
23 24 23 20 18 19 19 17 16 16 16 16 15 13 10 8 7 7 7 6 7 6 4 3 4 4 5 6 6 6 6 6 6 4 3 3 3 3 3 1 0 0 0
22 22 22 20 18 19 19 19 18 16 16 16 16 13 10 8 8 8 8 7 7 7 5 4 4 4 5 5 6 6 6 6 6 4 3 3 3 3 3 2 1 0 0
24 24 24 22 19 18 19 18 17 15 14 14 14 13 10 9 9 9 8 8 8 7 7 7 5 3 3 4 4 5 6 5 5 3 2 2 3 3 3 3 1 0 0
27 27 27 26 23 20 19 16 14 12 11 11 11 12 11 9 8 8 8 8 9 8 8 7 5 2 2 2 3 3 3 3 2 2 1 1 2 3 3 3 2 1 0
29 29 29 28 27 24 20 17 14 12 10 10 10 10 10 8 5 5 7 8 7 7 5 5 3 2 1 1 1 1 1 1 0 0 0 0 1 1 2 3 3 2 1
30 30 30 28 27 25 22 19 16 12 9 8 7 7 7 6 3 3 4 5 3 2 3 3 3 2 1 0 0 0 0 0 0 0 0 0 0 1 1 2 3 3 3
29 30 29 27 24 23 21 19 17 13 9 6 5 4 4 3 1 1 1 1 0 0 2 3 3 3 1 1 1 0 0 0 0 0 0 0 0 1 2 1 2 3 2
27 28 27 23 20 19 19 18 16 13 9 6 4 3 3 2 0 0 0 0 0 0 1 2 2 2 2 2 2 1 1 0 0 0 0 0 0 1 1 1 1 1 1
28 26 24 21 18 17 16 15 15 13 11 8 5 3 3 2 1 0 0 0 0 0 1 1 1 1 1 1 2 2 1 0 0 0 0 0 0 0 0 0 0 0 0
28 27 24 20 18 16 14 13 13 14 14 12 8 5 4 3 1 0 0 0 0 0 0 0 0 0 0 0 1 1 1 0 1 1 1 0 0 0 0 0 0 1 1
26 26 23 21 19 17 15 14 14 14 15 14 12 8 6 4 2 0 0 0 0 1 1 0 0 0 0 0 0 0 0 0 1 1 1 0 0 0 1 1 1 2 2
23 22 21 21 19 17 17 17 16 15 14 14 13 10 8 7 4 2 0 0 0 1 2 1 0 0 0 0 0 0 0 0 0 0 0 0 0 1 2 3 3 3 3
19 18 18 19 18 16 17 19 17 15 14 13 14 13 11 10 8 5 2 0 0 1 2 1 0 0 0 0 0 0 0 0 0 0 0 0 0 1 3 4 5 4 4
16 16 16 16 17 16 15 16 16 15 13 13 14 14 12 11 9 7 4 1 0 0 1 1 0 0 0 0 0 0 0 0 0 0 0 1 1 2 3 4 6 6 5
16 16 14 13 14 15 12 11 12 12 12 12 12 12 11 10 8 5 3 2 1 0 0 1 2 2 1 1 1 0 0 0 0 0 0 1 2 3 3 4 5 5 5
14 14 13 12 13 13 10 7 7 8 7 6 7 7 7 6 4 2 1 1 0 0 1 3 4 4 2 2 2 1 1 1 1 1 1 1 2 3 4 4 4 4 5
11 10 10 11 13 12 9 5 4 4 3 2 2 2 2 2 1 0 0 0 0 0 0 2 3 3 1 1 2 2 2 2 3 3 2 1 2 3 4 5 5 5 6
9 8 8 10 12 11 8 5 4 3 3 2 1 0 0 0 0 0 0 0 0 0 0 0 1 1 0 0 1 1 1 1 2 3 2 2 2 3 4 4 5 5 6
9 7 7 8 11 11 9 6 4 3 3 2 1 0 0 0 0 0 0 0 0 0 0 0 0 0 0 0 0 0 0 0 0 1 1 1 2 2 3 3 4 5 6
8 7 6 8 10 11 9 7 5 4 3 2 1 0 0 0 0 0 0 0 0 0 0 0 0 0 0 0 0 0 0 0 0 0 0 0 1 1 1 2 2 3 4
7 6 6 8 10 11 9 8 6 4 3 2 1 0 0 0 0 0 0 0 0 0 0 0 0 0 0 0 0 0 0 0 0 0 1 1 1 0 0 1 1 1 2
6 5 5 7 9 9 8 7 6 4 3 1 1 0 0 0 0 0 0 0 0 0 0 0 0 0 0 0 0 0 0 0 0 1 2 2 2 1 0 0 0 0 1
4 3 3 4 5 5 5 4 4 3 2 1 1 1 0 0 0 0 0 0 0 0 0 0 0 0 0 0 0 0 0 0 0 1 2 2 2 1 0 0 1 0 0
3 2 2 3 3 3 3 3 3 2 1 1 2 1 0 0 0 0 0 0 0 0 0 0 0 0 0 0 0 0 0 0 0 0 1 1 1 1 0 0 0 0 0
3 2 1 2 2 2 2 2 2 1 0 1 2 1 0 0 0 0 0 0 0 0 0 0 0 0 0 0 0 0 0 0 0 0 0 0 0 0 0 0 0 0 0
3 2 1 1 1 1 1 1 1 0 0 1 2 2 1 0 0 0 0 0 0 0 0 0 0 0 0 0 0 0 0 0 0 0 0 0 0 0 0 0 0 0 0
Wind_Speed
7 6 5 4 4 4 4 4 4 3 3 3 4 3 3 3 2 2 2 1 1 1 1 0 1 1 0 0 1 1 1 2 2 2 1 1 1 1 1 1 1 1 2
7 6 5 4 4 4 4 3 3 3 3 3 3 3 3 3 2 2 2 2 2 1 1 0 1 1 0 0 1 1 1 2 2 2 2 1 1 2 1 1 1 2 2
7 6 5 5 4 4 4 3 3 3 2 2 3 3 3 2 2 2 2 2 2 2 2 1 1 0 1 1 1 1 1 1 1 2 2 1 1 1 1 2 2 2 2
7 7 7 6 6 5 4 4 4 3 3 3 3 3 3 2 2 2 2 2 2 2 2 2 2 2 2 1 1 1 1 1 1 1 1 1 1 1 0 1 2 2 2
6 7 6 5 5 4 4 4 4 4 4 3 3 2 2 2 2 2 2 2 2 1 1 1 2 2 2 2 1 1 1 1 1 1 1 1 1 1 1 1 1 2 2
6 6 5 5 5 5 4 4 3 4 3 3 3 3 3 2 2 3 2 2 2 2 2 2 2 2 1 1 2 2 3 3 2 2 2 2 3 2 2 1 1 0 2
6 5 5 5 5 5 5 4 4 4 3 3 3 3 3 3 3 3 3 3 3 3 3 2 2 2 2 1 1 1 2 3 3 3 3 4 3 3 3 2 2 2 3
6 5 5 4 4 4 4 4 4 3 3 3 3 3 3 3 4 4 4 3 2 3 3 3 3 3 2 2 2 1 2 2 3 2 3 4 3 3 4 3 3 2 2
5 5 5 4 4 4 4 4 4 3 3 3 3 4 4 4 5 4 4 2 1 2 2 3 3 3 4 3 2 1 2 3 3 3 3 3 4 4 2 1 0 0 2
4 5 5 5 5 4 4 4 3 3 3 3 3 3 4 4 5 5 5 2 2 2 2 2 3 4 4 4 3 3 3 4 2 2 2 3 3 3 3 3 3 2 1
3 3 3 4 4 4 3 3 2 2 2 2 2 2 3 4 5 6 6 3 3 2 2 2 2 3 4 4 4 4 5 4 2 2 2 2 2 2 2 2 3 3 3
3 2 2 3 4 4 4 3 2 3 2 2 2 2 2 3 4 5 7 6 5 3 3 2 3 4 4 4 3 4 4 2 1 1 1 2 2 3 3 3 3 4 4
2 2 2 2 3 3 4 4 3 3 3 3 3 3 3 2 3 4 6 6 6 3 2 3 3 4 3 3 4 4 2 1 1 1 3 3 3 3 2 2 2 2 3
2 0 1 1 2 2 2 3 3 3 3 3 3 3 3 2 2 2 2 3 3 3 2 2 3 2 2 2 2 2 2 3 3 3 3 3 2 2 2 2 2 2 2
0 1 1 1 2 2 1 2 3 4 5 5 4 4 4 4 5 5 4 3 3 3 1 0 0 0 1 1 1 1 1 1 2 2 2 2 2 2 2 2 2 1 2
1 1 1 1 2 2 1 1 3 3 5 7 6 5 4 5 5 5 5 5 4 4 3 1 1 2 2 2 2 2 2 2 2 2 2 2 2 2 2 1 1 1 2
2 2 2 2 2 2 2 2 2 3 3 3 5 6 6 5 6 6 5 4 3 5 2 2 2 2 3 3 2 2 2 2 2 2 2 2 2 2 1 2 2 2 2
2 3 3 2 2 2 2 2 2 3 2 3 3 5 6 6 6 5 5 4 1 1 2 2 3 3 3 3 2 2 2 1 1 1 1 1 1 1 1 1 2 2 2
2 2 3 3 2 2 2 2 2 3 3 2 1 2 3 3 3 3 4 3 3 2 2 2 3 3 3 3 3 2 2 2 1 1 1 1 1 1 1 2 2 3 2
2 4 3 2 2 2 2 3 3 3 3 3 3 3 2 2 2 2 3 3 3 3 3 3 3 3 2 2 2 2 2 1 1 1 1 1 1 1 2 2 2 2 2
2 3 4 2 2 3 3 3 3 3 3 3 3 3 5 4 4 4 3 4 4 4 3 3 3 2 2 2 2 2 2 2 2 2 2 2 2 2 2 2 3 3 3
2 2 2 2 2 2 2 2 2 2 2 3 2 3 5 4 3 3 4 4 4 3 3 3 2 2 3 3 3 3 3 3 2 2 2 2 2 2 2 2 2 2 2
2 2 2 2 2 2 2 2 2 2 2 2 3 2 3 3 3 3 3 3 2 2 2 2 2 2 2 2 2 3 3 3 3 3 2 2 2 2 2 2 3 3 3
2 2 2 2 2 2 2 2 2 2 2 2 2 2 2 2 3 3 3 2 2 2 2 2 2 3 2 1 1 1 2 2 2 2 3 3 2 2 2 2 3 3 3
2 2 2 2 1 2 2 2 2 2 2 2 1 1 2 2 2 2 2 2 3 2 2 1 1 2 2 2 2 1 1 1 1 1 2 2 2 3 2 3 3 3 3
2 2 2 1 1 1 1 1 1 1 1 1 1 1 1 2 2 2 2 2 2 2 2 1 2 2 2 2 2 2 1 1 1 1 1 1 2 2 2 2 3 3 3
Wind_Direction
183 184 182 184 184 181 184 191 190 187 184 183 184 183 190 197 200 197 220 207 201 241 256 200 259 247 230 225 182 173 169 153 194 274 272 288 277 278 299 282 258 235 238
183 178 180 181 178 179 186 185 175 178 183 187 179 177 188 189 187 188 215 209 192 206 239 212 267 250 259 250 183 194 194 175 174 239 283 296 277 267 265 269 271 251 245
179 177 178 181 182 188 191 179 170 174 177 182 172 174 186 193 189 192 197 200 196 203 209 206 232 181 266 248 191 205 211 190 168 188 252 258 271 280 323 299 288 280 271
179 180 182 188 189 192 191 180 177 174 182 192 185 189 191 187 188 195 192 193 201 209 207 201 200 192 214 220 203 213 197 166 166 180 239 268 269 280 180 277 299 293 291
181 188 190 189 186 182 185 182 178 180 190 184 177 187 191 183 197 197 210 201 200 213 220 207 197 186 190 202 198 198 174 175 180 189 234 256 267 283 258 244 264 295 295
179 191 186 181 182 184 185 181 179 194 199 180 186 182 190 203 188 181 184 200 201 206 218 228 222 200 226 226 212 204 187 188 195 200 232 242 249 239 234 234 229 321 294
183 186 180 176 181 187 185 181 190 196 190 188 195 187 199 211 195 192 195 192 203 213 215 215 231 219 213 219 249 271 256 237 203 191 216 237 236 226 210 228 225 216 235
179 177 174 168 177 183 183 188 195 188 185 191 198 198 194 212 207 201 193 192 204 216 214 210 212 227 220 197 209 249 267 271 248 224 221 238 242 232 211 213 221 237 261
170 176 176 179 183 185 192 202 202 185 190 198 196 194 195 218 214 204 184 178 209 238 241 227 208 212 222 191 172 220 268 285 274 250 239 255 258 254 226 162 198 159 283
181 184 182 181 187 193 197 198 192 186 202 204 205 203 201 215 216 207 187 173 200 242 263 264 233 220 224 204 192 200 236 260 273 293 295 299 287 281 259 209 201 204 238
182 171 170 176 186 199 200 200 190 190 195 201 211 218 212 215 216 211 197 185 200 211 229 251 254 235 232 227 212 211 231 240 240 247 269 289 298 287 266 240 214 202 212
145 145 168 179 187 189 193 204 200 193 197 212 213 230 238 231 218 215 205 202 196 193 223 239 247 247 241 235 223 231 240 230 226 249 270 275 276 275 271 258 241 233 229
127 150 187 198 198 186 188 195 199 199 201 211 210 224 243 244 229 213 205 207 207 203 226 239 257 254 244 241 242 239 228 201 204 234 252 255 250 254 268 284 284 267 268
117 174 233 223 224 211 204 199 198 204 206 211 215 222 230 234 230 211 204 211 221 232 255 276 279 265 248 256 261 248 221 208 207 229 245 256 267 275 274 268 271 279 285
100 269 256 242 233 226 227 229 217 216 205 204 213 206 201 224 232 210 192 197 202 211 197 256 322 260 262 273 267 257 243 224 231 245 248 266 275 274 274 273 259 266 263
164 258 251 242 243 227 214 294 312 258 238 223 217 203 212 216 207 199 195 189 188 176 152 171 214 222 227 235 239 253 246 237 235 232 240 247 258 265 273 287 279 257 263
197 227 246 252 243 227 215 210 267 314 300 253 227 211 207 204 195 189 184 179 176 157 157 188 203 222 230 229 230 233 240 242 230 216 227 244 255 267 268 271 271 269 272
218 238 242 238 242 228 217 216 213 222 247 269 256 234 220 208 198 187 157 125 127 177 194 202 214 216 219 221 222 225 230 241 232 224 221 235 238 251 268 276 274 272 276
224 235 238 237 235 225 214 211 218 228 229 236 249 259 231 209 200 199 165 165 192 210 215 219 221 216 216 217 218 217 214 212 215 211 212 212 211 219 251 265 270 282 276
244 258 254 235 231 224 218 218 223 229 229 219 219 218 175 145 172 204 200 200 205 214 214 216 218 216 217 215 211 204 201 201 201 207 215 221 223 215 233 251 256 264 263
251 260 265 256 235 225 223 224 223 224 227 226 229 218 183 183 198 204 206 207 207 211 210 208 210 212 213 209 206 201 196 206 212 220 227 232 232 234 239 244 253 254 259
247 252 254 249 249 245 236 226 217 214 219 220 232 221 199 194 203 206 209 210 206 205 200 188 193 206 208 202 199 199 203 212 220 224 230 235 236 238 244 252 260 261 259
245 253 260 255 239 241 239 224 213 213 217 221 219 211 200 205 205 204 209 209 199 199 196 183 187 209 215 204 198 194 200 212 216 213 219 234 247 250 249 254 260 267 268
260 259 253 245 233 219 215 220 217 215 212 211 214 212 203 199 199 197 197 189 180 189 194 186 190 196 194 193 201 198 195 204 211 215 212 215 232 248 250 255 256 257 263
264 260 254 250 234 227 228 229 230 229 217 202 200 206 194 181 183 184 176 172 171 174 184 181 175 173 173 158 144 151 183 203 224 238 227 220 233 245 251 257 258 262 264
268 260 254 246 232 224 216 216 230 234 218 206 192 187 185 184 180 177 171 171 171 166 167 158 148 146 142 138 145 161 191 211 219 233 231 233 244 250 252 257 260 260 258